Weather in Ashilta

Russia / Republic of Dagestan     42°46′19″N   46°43′44″E
temp.,
°C
wind,
m/s
gust,
m/s
humid.,
%
clouds,
%
prec.,
mm/h
press.,
hPa
HPBL,
m
20 may, fri
fri2000:00+10nw2393100 2.3 1013245
03:00+8nnw229396 2.9 1013180
06:00+5nnw3395100 0.1 1015338
09:00+4nw3387100 0.3 1018447
12:00+6wnw457599 0.3 1018677
15:00+7wnw5869100 0.9 10171149
18:00+5w4587100 1.0 1019587
21:00+4w4593100 1.2 1021295
21 may, sat
sat2100:00+3wsw459584 0.5 1021281
03:00+4wsw469331 0.6 1021330
06:00+4wsw4585100 0.0 1021221
09:00+10w46485 0.0 10191396
12:00+13wnw363612 0.0 10171854
15:00+14nw344198 0.0 10171667
18:00+12ene445815 0.0 1016392
21:00+7sw22845 0.0 101719
22 may, sun
sun2200:00+6wsw337849 0.0 101638
03:00+6wsw44620 0.0 101540
06:00+8wsw33580 0.0 101492
09:00+15s12396 0.0 1010662
12:00+19e33350 0.0 10071457
15:00+19ne43450 0.0 1004868
18:00+16ene21620 0.0 1004287
21:00+11wsw22720 0.0 100511
23 may, mon
mon2300:00+10wsw33620 0.0 100422
03:00+9wsw33640 0.0 100417
06:00+12nw22630 0.0 100490
09:00+15ne32542 0.0 1003939
12:00+16ne5361100 0.0 10031256
15:00+11ne3390100 0.9 1004548
18:00+9ne3398100 5.7 1004245
21:00+8ene2297100 13.9 1004196
24 may, tue
tue2400:00+7ese1193100 7.2 1004164
03:00+7sw1292100 11.0 1005172
06:00+7nw1290100 8.4 1007568
09:00+6nnw1191100 11.6 1008482
12:00+7ne2288100 1.7 1010660
15:00+8se1183100 1.9 1010475
18:00+9ene2283100 0.4 1011435
21:00+7nne1196100 4.9 1014107